Domov               UVHVVR             MKGP            O straneh              
ZDRAVSTVENO VARSTVO RASTLIN
  MREŽA AGROMET. POSTAJ
 ► PROGNOSTIČNA OBVESTILA
AGROMETEOROLOŠKI PODATKI -
ARSO
OBVLADOVANJE TVEGANJ ZARADI
NEUGODNIH VREMENSKIH RAZMER
  ► NARAVNE NESREČE
  ► SUŠA/MOČA
  ► NAMAKANJE
  ► ŽLED (gozdarstvo)
KARTOGRAFSKI PRIKAZI
SPLETNE POVEZAVE
PROJEKTI IN PUBLIKACIJE

AGROMETEOROLOŠKA MREŽA: VREMENSKE POSTAJE IN FENOLOŠKA OPAZOVANJA

Pregled podatkov za lokacijo Črnomelj, meteorološka postaja 859096

Pregled senzorjev na lokaciji

ID Ime Zadnja
vrednost
Datum
zadnje
spremembe
Tip
senzorja
4080 Temperatura 2 m (°C) 11,98 °C 11.12.2017 10:15 50YA
4081 Relativna vlaga 2 m (% RH) 66,97 % RH 11.12.2017 10:15 50YA
4082 Omočenost lista (U) 2 U 11.12.2017 10:15 A730WET
4083 Padavine (mm) 0 mm 11.12.2017 10:15 Rain-O-Matic

Pregled podatkov zadnjih 24 ur

Zap.
št.
Datum in čas Črnomelj
Omočenost
lista
Padavine Relativna
vlaga
2
m
Temperatura
2
m
0 11.12.2017 10:30 2 0 66,97 11,98
1 11.12.2017 10:00 3 0 67,79 11,56
2 11.12.2017 09:30 5,5 0 70,99 11,07
3 11.12.2017 09:00 0,5 0 67,73 11,36
4 11.12.2017 08:30 0 0 65,65 11,47
5 11.12.2017 08:00 2,5 0,2 65,82 11,02
6 11.12.2017 07:30 3 2,2 64,34 11,15
7 11.12.2017 07:00 4 2 65,13 10,91
8 11.12.2017 06:30 5 3,6 66,4 10,65
9 11.12.2017 06:00 5,5 2,8 73,78 8,8
10 11.12.2017 05:30 6 1,4 87,01 5,72
11 11.12.2017 05:00 5,5 2,2 79,38 7,75
12 11.12.2017 04:30 5 3,2 91,76 4,97
13 11.12.2017 04:00 5 2 96,09 3,39
14 11.12.2017 03:30 6 1,6 97,58 2,46
15 11.12.2017 03:00 5,5 2 96,87 3,09
16 11.12.2017 02:30 5 1,6 97,4 2,58
17 11.12.2017 02:00 4,5 1,6 95,18 2,61
18 11.12.2017 01:30 4 2 95,19 2,28
19 11.12.2017 01:00 3 2 94,2 2,21
20 11.12.2017 00:30 3 2 93,8 2,01
21 11.12.2017 00:00 2 1,6 94,28 1,77
22 10.12.2017 23:30 1,5 2 95,47 1,47
23 10.12.2017 23:00 1 1,6 95,4 1,4
24 10.12.2017 22:30 1 1,6 95,89 1,29
25 10.12.2017 22:00 0,8 95,9 1,27
26 10.12.2017 21:30 0,8 96,08 1,31
27 10.12.2017 21:00 0,8 94,76 1,49
28 10.12.2017 20:30 0,8 92,22 1,76
29 10.12.2017 20:00 1,2 90,07 2,04
30 10.12.2017 19:30 1,6 87,28 2,22
31 10.12.2017 19:00 0,2 82,47 2,61
32 10.12.2017 18:30 0 0 80,49 2,45
33 10.12.2017 18:00 0 0 78,37 2,64
34 10.12.2017 17:30 0 0 78,94 2,31
35 10.12.2017 17:00 0 0 78,32 2,02
36 10.12.2017 16:30 0 0 82,94 0,47
37 10.12.2017 16:00 0 0 83,74 0,09
38 10.12.2017 15:30 0 0 93,53 -1,38
39 10.12.2017 15:00 0 0 91,24 -0,94
40 10.12.2017 14:30 0 0 87,51 -0,53
41 10.12.2017 14:00 0 0 88,22 -0,99
42 10.12.2017 13:30 0 0 85,27 -0,9
43 10.12.2017 13:00 0 0 87,12 -1,46
44 10.12.2017 12:30 0 0 81,3 -0,85
45 10.12.2017 12:00 0 0 75,73 0,12
46 10.12.2017 11:30 0 0 77,62 -0,68
47 10.12.2017 11:00 0 0 76,16 -0,86
© 2011 Ministrstvo za kmetijstvo, gozdarstvo in prehrano. Vse pravice pridržane.